• In Lithuania
  • List of Countries
  • For 7 days
  • Water Temperature
  • Satellite Maps
  • Weather Map
  • Weather Widgets
  • user-avatar
    Login

    Hourly Weather Belém

    Today, 13 December, Wednesday

    Time Temperature Precipitation Wind Pressure Humidity
    00:00 +27°C° 0 mm 2 mps 757 mmHg 88%
    01:00 +27°C° 0 mm 1 mps 756 mmHg 89%
    02:00 +27°C° 0 mm 1 mps 756 mmHg 89%
    03:00 +27°C° 0 mm 1 mps 756 mmHg 90%
    04:00 +26°C° 0 mm 1 mps 756 mmHg 91%
    05:00 +26°C° 0 mm 1 mps 756 mmHg 92%
    06:00 +26°C° 0 mm 1 mps 756 mmHg 92%
    07:00 +28°C° 0 mm 1 mps 757 mmHg 87%
    08:00 +29°C° 0 mm 1 mps 757 mmHg 81%
    09:00 +30°C° 0 mm 2 mps 758 mmHg 75%
    10:00 +32°C° 0 mm 2 mps 758 mmHg 67%
    11:00 +34°C° 0 mm 2 mps 758 mmHg 59%
    12:00 +36°C° 0 mm 2 mps 757 mmHg 52%
    13:00 +36°C° 0.2 mm 2 mps 757 mmHg 53%
    14:00 +35°C° 0.2 mm 2 mps 756 mmHg 54%
    15:00 +35°C° 0.2 mm 2 mps 756 mmHg 56%
    16:00 +34°C° 0.7 mm 2 mps 756 mmHg 63%
    17:00 +31°C° 0.7 mm 2 mps 756 mmHg 70%
    18:00 +29°C° 0.7 mm 2 mps 756 mmHg 77%
    19:00 +29°C° 1.2 mm 2 mps 757 mmHg 80%
    20:00 +28°C° 1.2 mm 2 mps 758 mmHg 83%
    21:00 +27°C° 1.2 mm 2 mps 758 mmHg 86%
    22:00 +27°C° 0.9 mm 2 mps 758 mmHg 87%
    23:00 +27°C° 0.9 mm 2 mps 759 mmHg 88%

    Tomorrow, 14 December, Thursday

    Time Temperature Precipitation Wind Pressure Humidity
    00:00 +26°C° 0.9 mm 1 mps 759 mmHg 90%
    01:00 +26°C° 0.2 mm 1 mps 758 mmHg 91%
    02:00 +26°C° 0.2 mm 1 mps 758 mmHg 92%
    03:00 +26°C° 0.2 mm 1 mps 757 mmHg 93%
    04:00 +26°C° 0.1 mm 1 mps 757 mmHg 94%
    05:00 +26°C° 0.1 mm 1 mps 757 mmHg 94%
    06:00 +26°C° 0.1 mm 1 mps 757 mmHg 94%
    07:00 +27°C° 0 mm 1 mps 758 mmHg 90%
    08:00 +28°C° 0 mm 1 mps 758 mmHg 86%
    09:00 +28°C° 0 mm 2 mps 759 mmHg 81%
    10:00 +30°C° 0 mm 2 mps 758 mmHg 73%
    11:00 +32°C° 0 mm 1 mps 758 mmHg 65%
    12:00 +33°C° 0 mm 1 mps 758 mmHg 56%
    13:00 +34°C° 0 mm 2 mps 757 mmHg 55%
    14:00 +34°C° 0 mm 2 mps 756 mmHg 54%
    15:00 +34°C° 0 mm 2 mps 755 mmHg 54%
    16:00 +32°C° 0 mm 2 mps 755 mmHg 59%
    17:00 +31°C° 0 mm 2 mps 755 mmHg 63%
    18:00 +30°C° 0 mm 2 mps 756 mmHg 68%
    19:00 +29°C° 0 mm 2 mps 756 mmHg 72%
    20:00 +29°C° 0 mm 2 mps 757 mmHg 75%
    21:00 +28°C° 0 mm 2 mps 757 mmHg 78%
    22:00 +28°C° 0 mm 2 mps 757 mmHg 80%
    23:00 +28°C° 0 mm 1 mps 758 mmHg 81%

    Day after tomorrow, 15 December, Friday

    Time Temperature Precipitation Wind Pressure Humidity
    00:00 +27°C° 0 mm 1 mps 758 mmHg 82%
    01:00 +27°C° 0 mm 1 mps 757 mmHg 84%
    02:00 +27°C° 0 mm 1 mps 757 mmHg 85%
    03:00 +26°C° 0 mm 1 mps 756 mmHg 86%
    04:00 +26°C° 0.1 mm 1 mps 756 mmHg 87%
    05:00 +26°C° 0.1 mm 1 mps 756 mmHg 89%
    06:00 +26°C° 0.1 mm 1 mps 757 mmHg 90%
    07:00 +28°C° 0.1 mm 1 mps 757 mmHg 82%
    08:00 +29°C° 0.1 mm 2 mps 758 mmHg 75%
    09:00 +31°C° 0.1 mm 2 mps 758 mmHg 68%
    10:00 +32°C° 0.2 mm 2 mps 758 mmHg 64%
    11:00 +34°C° 0.2 mm 2 mps 757 mmHg 59%
    12:00 +35°C° 0.2 mm 2 mps 757 mmHg 55%
    13:00 +34°C° 1 mm 2 mps 756 mmHg 59%
    14:00 +34°C° 1 mm 2 mps 755 mmHg 64%
    15:00 +32°C° 1 mm 2 mps 754 mmHg 69%
    16:00 +31°C° 1.1 mm 2 mps 754 mmHg 74%
    17:00 +30°C° 1.1 mm 2 mps 755 mmHg 79%
    18:00 +28°C° 1.1 mm 2 mps 755 mmHg 84%
    19:00 +28°C° 0.4 mm 2 mps 755 mmHg 85%
    20:00 +28°C° 0.4 mm 2 mps 756 mmHg 86%
    21:00 +27°C° 0.4 mm 2 mps 757 mmHg 87%
    22:00 +27°C° 0.2 mm 2 mps 757 mmHg 88%
    23:00 +27°C° 0.2 mm 2 mps 757 mmHg 88%

    16 December, Saturday

    Time Temperature Precipitation Wind Pressure Humidity
    00:00 +27°C° 0.2 mm 1 mps 757 mmHg 89%
    01:00 +27°C° 0.4 mm 1 mps 756 mmHg 89%
    02:00 +26°C° 0.4 mm 1 mps 756 mmHg 90%
    03:00 +26°C° 0.4 mm 1 mps 755 mmHg 91%
    04:00 +26°C° 0.7 mm 1 mps 755 mmHg 92%
    05:00 +26°C° 0.7 mm 1 mps 755 mmHg 93%
    06:00 +26°C° 0.7 mm 1 mps 756 mmHg 94%
    07:00 +27°C° 0.5 mm 1 mps 756 mmHg 89%
    08:00 +28°C° 0.5 mm 2 mps 757 mmHg 84%
    09:00 +29°C° 0.5 mm 2 mps 757 mmHg 80%
    10:00 +30°C° 0.6 mm 2 mps 757 mmHg 74%
    11:00 +32°C° 0.6 mm 2 mps 757 mmHg 69%
    12:00 +34°C° 0.6 mm 2 mps 756 mmHg 64%
    13:00 +32°C° 2.7 mm 2 mps 756 mmHg 70%
    14:00 +31°C° 2.7 mm 2 mps 755 mmHg 76%
    15:00 +30°C° 2.7 mm 2 mps 754 mmHg 82%
    16:00 +29°C° 2.8 mm 2 mps 755 mmHg 85%
    17:00 +28°C° 2.8 mm 1 mps 755 mmHg 88%
    18:00 +27°C° 2.8 mm 1 mps 755 mmHg 91%
    19:00 +27°C° 2 mm 2 mps 756 mmHg 92%
    20:00 +26°C° 2 mm 2 mps 756 mmHg 92%
    21:00 +26°C° 2 mm 2 mps 757 mmHg 92%
    22:00 +26°C° 0.7 mm 2 mps 757 mmHg 92%
    23:00 +26°C° 0.7 mm 2 mps 757 mmHg 92%

    17 December, Sunday

    Time Temperature Precipitation Wind Pressure Humidity
    00:00 +26°C° 0.7 mm 2 mps 757 mmHg 93%
    01:00 +26°C° 0.1 mm 2 mps 757 mmHg 93%
    02:00 +26°C° 0.1 mm 1 mps 756 mmHg 93%
    03:00 +26°C° 0.1 mm 1 mps 756 mmHg 94%
    04:00 +26°C° 0 mm 1 mps 756 mmHg 94%
    05:00 +25°C° 0 mm 1 mps 756 mmHg 94%
    06:00 +25°C° 0 mm 1 mps 756 mmHg 94%
    07:00 +26°C° 0 mm 2 mps 757 mmHg 87%
    08:00 +28°C° 0 mm 2 mps 758 mmHg 80%
    09:00 +29°C° 0 mm 2 mps 758 mmHg 73%
    10:00 +29°C° 0 mm 2 mps 758 mmHg 68%
    11:00 +30°C° 0 mm 2 mps 758 mmHg 64%
    12:00 +31°C° 0 mm 2 mps 757 mmHg 59%
    13:00 +31°C° 0 mm 2 mps 757 mmHg 61%
    14:00 +30°C° 0 mm 2 mps 756 mmHg 62%
    15:00 +30°C° 0 mm 2 mps 756 mmHg 63%
    16:00 +29°C° 0 mm 2 mps 756 mmHg 66%
    17:00 +29°C° 0 mm 1 mps 756 mmHg 69%
    18:00 +28°C° 0 mm 1 mps 757 mmHg 72%
    19:00 +27°C° 0 mm 1 mps 757 mmHg 74%
    20:00 +26°C° 0 mm 1 mps 757 mmHg 77%
    21:00 +26°C° 0 mm 1 mps 758 mmHg 79%
    22:00 +26°C° 0 mm 1 mps 758 mmHg 80%
    23:00 +25°C° 0 mm 1 mps 758 mmHg 80%

    18 December, Monday

    Time Temperature Precipitation Wind Pressure Humidity
    00:00 +25°C° 0 mm 1 mps 758 mmHg 81%
    01:00 +25°C° 0 mm 1 mps 757 mmHg 81%
    02:00 +25°C° 0 mm 1 mps 757 mmHg 81%
    03:00 +25°C° 0 mm 1 mps 756 mmHg 81%
    04:00 +25°C° 0 mm 1 mps 757 mmHg 82%
    05:00 +25°C° 0 mm 1 mps 757 mmHg 82%
    06:00 +24°C° 0 mm 1 mps 757 mmHg 83%
    07:00 +26°C° 0 mm 1 mps 757 mmHg 79%
    08:00 +27°C° 0 mm 1 mps 758 mmHg 75%
    09:00 +28°C° 0 mm 1 mps 758 mmHg 71%
    10:00 +30°C° 0 mm 1 mps 758 mmHg 67%
    11:00 +31°C° 0 mm 2 mps 758 mmHg 62%
    12:00 +34°C° 0 mm 2 mps 758 mmHg 58%
    13:00 +32°C° 0.9 mm 2 mps 757 mmHg 62%
    14:00 +32°C° 0.9 mm 2 mps 756 mmHg 67%
    15:00 +31°C° 0.9 mm 1 mps 756 mmHg 72%
    16:00 +30°C° 1.5 mm 1 mps 756 mmHg 78%
    17:00 +28°C° 1.5 mm 1 mps 756 mmHg 84%
    18:00 +27°C° 1.5 mm 1 mps 757 mmHg 90%
    19:00 +27°C° 0.8 mm 1 mps 757 mmHg 90%
    20:00 +26°C° 0.8 mm 1 mps 758 mmHg 91%
    21:00 +26°C° 0.8 mm 1 mps 758 mmHg 92%
    22:00 +26°C° 0.2 mm 1 mps 758 mmHg 93%
    23:00 +26°C° 0.2 mm 1 mps 758 mmHg 93%
    Show more